Location: Capon Springs and Farms
(39.1310°N, 78.4814°W)
Time: 12:42:37
(UTC-04:00)

Tiangong 2 - Visible Passes

Search period start: 19 March 2019 00:00
Search period end: 29 March 2019 00:00
Orbit: 379 x 390 km, 42.8° (Epoch: 18 March)

Date Brightness Start Highest point End Pass type
(mag) Time Alt. Az. Time Alt. Az. Time Alt. Az.
19 Mar 3.6 05:04:57 22° ENE 05:04:57 22° ENE 05:06:22 10° ENE visible
19 Mar 1.2 06:37:11 10° WNW 06:40:19 78° NNE 06:43:30 10° ESE visible
20 Mar 1.5 05:40:31 52° NNW 05:40:49 54° NNE 05:43:55 10° E visible
21 Mar 4.5 04:43:55 13° E 04:43:55 13° E 04:44:18 10° E visible
21 Mar 1.1 06:16:09 21° WNW 06:18:06 65° SSW 06:21:15 10° ESE visible
22 Mar 2.4 05:19:40 39° E 05:19:40 39° E 05:21:48 10° ESE visible
23 Mar 1.7 05:55:32 36° SW 05:55:47 37° SSW 05:58:44 10° SE visible
24 Mar 4.1 04:59:18 11° ESE 04:59:18 11° ESE 04:59:29 10° ESE visible
24 Mar 3.3 06:31:34 10° WSW 06:32:39 12° SW 06:33:50 10° SSW visible
25 Mar 3.7 05:35:31 12° SSE 05:35:31 12° SSE 05:35:49 10° SSE visible
28 Mar 3.4 20:43:20 10° S 20:44:00 12° SSE 20:44:00 12° SSE visible
